Time,TemperatureF,DewpointF,PressureIn,WindDirection,WindDirectionDegrees,WindSpeedMPH,WindSpeedGustMPH,Humidity,HourlyPrecipIn,Conditions,Clouds,dailyrainin,SolarRadiationWatts/m^2,SoftwareType,DateUTC
2013-03-18 00:03:00,24.7,23.0,29.72,SSW,192,11.0,15.0,93,0.00,,SKC,0.00,0.00,VWS V14.00,2013-03-18 05:03:00,
2013-03-18 00:08:00,24.8,23.1,29.72,South,175,17.0,33.0,93,0.00,,SKC,0.00,0.00,VWS V14.00,2013-03-18 05:08:00,
2013-03-18 00:13:00,24.9,23.2,29.72,South,175,14.0,22.0,93,0.00,,SKC,0.00,0.00,VWS V14.00,2013-03-18 05:13:00,
2013-03-18 00:18:00,25.0,23.3,29.71,SSE,163,20.0,32.0,93,0.00,,SKC,0.00,0.00,VWS V14.00,2013-03-18 05:18:00,
2013-03-18 00:23:00,25.2,23.5,29.70,SSW,192,11.0,25.0,93,0.00,,SKC,0.00,0.00,VWS V14.00,2013-03-18 05:23:00,
2013-03-18 00:28:00,25.3,23.6,29.70,SSW,204,13.0,22.0,93,0.00,,SKC,0.00,0.00,VWS V14.00,2013-03-18 05:28:00,
2013-03-18 00:33:00,25.4,23.9,29.70,SSW,198,12.0,27.0,94,0.00,,SKC,0.00,0.00,VWS V14.00,2013-03-18 05:33:00,
2013-03-18 00:38:00,25.5,24.0,29.70,South,187,20.0,29.0,94,0.00,,SKC,0.00,0.00,VWS V14.00,2013-03-18 05:38:00,
2013-03-18 00:43:00,25.7,24.2,29.70,SSW,202,19.0,24.0,94,0.00,,SKC,0.00,0.00,VWS V14.00,2013-03-18 05:43:00,
2013-03-18 00:48:00,25.8,24.3,29.69,SSE,152,18.0,19.0,94,0.00,,SKC,0.00,0.00,VWS V14.00,2013-03-18 05:48:00,
2013-03-18 00:53:00,26.0,24.5,29.69,South,177,18.0,23.0,94,0.00,,SKC,0.00,0.00,VWS V14.00,2013-03-18 05:53:00,
2013-03-18 00:58:00,26.1,24.6,29.69,South,189,17.0,25.0,94,0.00,,SKC,0.00,0.00,VWS V14.00,2013-03-18 05:58:00,
2013-03-18 01:03:00,26.1,24.6,29.68,SSW,198,18.0,18.0,94,0.00,,SKC,0.00,0.00,VWS V14.00,2013-03-18 06:03:00,
2013-03-18 01:08:00,26.2,24.7,29.67,South,173,13.0,17.0,94,0.00,,SKC,0.00,0.00,VWS V14.00,2013-03-18 06:08:00,
2013-03-18 01:13:00,26.3,24.8,29.68,SSW,205,16.0,20.0,94,0.00,,SKC,0.00,0.00,VWS V14.00,2013-03-18 06:13:00,
2013-03-18 01:18:00,26.5,25.0,29.68,South,191,13.0,19.0,94,0.00,,SKC,0.00,0.00,VWS V14.00,2013-03-18 06:18:00,
2013-03-18 01:24:00,26.6,25.1,29.68,South,190,16.0,19.0,94,0.00,,SKC,0.00,0.00,VWS V14.00,2013-03-18 06:24:00,
2013-03-18 01:29:00,26.7,25.2,29.67,South,190,30.0,30.0,94,0.00,,SKC,0.00,0.00,VWS V14.00,2013-03-18 06:29:00,
2013-03-18 01:34:00,26.8,25.6,29.67,South,183,15.0,19.0,95,0.00,,SKC,0.00,0.00,VWS V14.00,2013-03-18 06:34:00,
2013-03-18 01:39:00,26.9,25.7,29.68,South,173,21.0,21.0,95,0.00,,SKC,0.00,0.00,VWS V14.00,2013-03-18 06:39:00,
2013-03-18 01:44:00,27.0,25.8,29.68,SSW,203,15.0,16.0,95,0.00,,SKC,0.00,0.00,VWS V14.00,2013-03-18 06:44:00,
2013-03-18 01:49:00,27.2,26.0,29.67,SSE,163,16.0,20.0,95,0.00,,SKC,0.00,0.00,VWS V14.00,2013-03-18 06:49:00,
2013-03-18 01:54:00,27.2,26.0,29.68,South,175,21.0,28.0,95,0.00,,SKC,0.00,0.00,VWS V14.00,2013-03-18 06:54:00,
2013-03-18 01:59:00,27.3,26.1,29.67,South,173,13.0,20.0,95,0.00,,SKC,0.00,0.00,VWS V14.00,2013-03-18 06:59:00,
2013-03-18 02:04:00,27.3,26.1,29.68,South,174,18.0,20.0,95,0.00,,SKC,0.00,0.00,VWS V14.00,2013-03-18 07:04:00,
2013-03-18 02:09:00,27.4,26.2,29.68,South,182,15.0,15.0,95,0.00,,SKC,0.00,0.00,VWS V14.00,2013-03-18 07:09:00,
2013-03-18 02:14:00,27.4,26.2,29.68,South,175,11.0,21.0,95,0.00,,SKC,0.00,0.00,VWS V14.00,2013-03-18 07:14:00,
2013-03-18 02:19:00,27.4,26.2,29.68,SSW,213,17.0,19.0,95,0.00,,SKC,0.00,0.00,VWS V14.00,2013-03-18 07:19:00,
2013-03-18 02:24:00,27.5,26.3,29.67,SSW,202,17.0,28.0,95,0.00,,SKC,0.00,0.00,VWS V14.00,2013-03-18 07:24:00,
2013-03-18 02:30:00,27.6,26.4,29.67,South,186,16.0,26.0,95,0.00,,SKC,0.00,0.00,VWS V14.00,2013-03-18 07:30:00,
2013-03-18 02:35:00,27.6,26.4,29.67,SSW,211,19.0,22.0,95,0.00,,SKC,0.00,0.00,VWS V14.00,2013-03-18 07:35:00,
2013-03-18 02:40:00,27.7,26.5,29.67,SSW,205,18.0,23.0,95,0.00,,SKC,0.00,0.00,VWS V14.00,2013-03-18 07:40:00,
2013-03-18 02:45:00,27.8,26.6,29.66,South,190,15.0,17.0,95,0.00,,SKC,0.00,0.00,VWS V14.00,2013-03-18 07:45:00,
2013-03-18 02:50:00,27.8,26.6,29.66,SW,218,16.0,19.0,95,0.00,,SKC,0.00,0.00,VWS V14.00,2013-03-18 07:50:00,
2013-03-18 02:55:00,27.8,26.6,29.66,SSW,206,20.0,23.0,95,0.00,,SKC,0.00,0.00,VWS V14.00,2013-03-18 07:55:00,
2013-03-18 03:00:00,27.9,26.7,29.65,South,191,16.0,21.0,95,0.00,,SKC,0.00,0.00,VWS V14.00,2013-03-18 08:00:00,
2013-03-18 03:05:00,27.9,26.7,29.65,South,188,15.0,23.0,95,0.00,,SKC,0.00,0.00,VWS V14.00,2013-03-18 08:05:00,
2013-03-18 03:10:00,28.0,26.8,29.65,SSW,192,19.0,23.0,95,0.00,,SKC,0.00,0.00,VWS V14.00,2013-03-18 08:10:00,
2013-03-18 03:15:00,28.1,26.9,29.64,South,173,13.0,20.0,95,0.00,,SKC,0.00,0.00,VWS V14.00,2013-03-18 08:15:00,
2013-03-18 03:20:00,28.2,27.0,29.64,SW,217,20.0,24.0,95,0.00,,SKC,0.00,0.00,VWS V14.00,2013-03-18 08:20:00,
2013-03-18 03:25:00,28.2,27.0,29.64,SW,220,15.0,24.0,95,0.00,,SKC,0.00,0.00,VWS V14.00,2013-03-18 08:25:00,
2013-03-18 03:30:00,28.3,27.0,29.64,SSW,198,17.0,21.0,95,0.00,,SKC,0.00,0.00,VWS V14.00,2013-03-18 08:30:00,
2013-03-18 03:35:00,28.3,27.0,29.63,SSW,203,16.0,23.0,95,0.00,,SKC,0.00,0.00,VWS V14.00,2013-03-18 08:35:00,
2013-03-18 03:40:00,28.4,27.1,29.63,SSW,202,14.0,22.0,95,0.00,,SKC,0.00,0.00,VWS V14.00,2013-03-18 08:40:00,
2013-03-18 03:45:00,28.5,27.2,29.63,South,186,19.0,19.0,95,0.00,,SKC,0.00,0.00,VWS V14.00,2013-03-18 08:45:00,
2013-03-18 03:50:00,28.6,27.4,29.62,South,177,17.0,25.0,95,0.00,,SKC,0.00,0.00,VWS V14.00,2013-03-18 08:50:00,
2013-03-18 03:55:00,28.7,27.5,29.62,South,191,15.0,18.0,95,0.00,,SKC,0.00,0.00,VWS V14.00,2013-03-18 08:55:00,
2013-03-18 04:00:00,28.8,27.5,29.62,SW,228,11.0,18.0,95,0.00,,SKC,0.00,0.00,VWS V14.00,2013-03-18 09:00:00,
2013-03-18 04:05:00,28.9,27.6,29.62,SSE,166,14.0,23.0,95,0.00,,SKC,0.00,0.00,VWS V14.00,2013-03-18 09:05:00,
2013-03-18 04:10:00,29.0,27.8,29.61,SSW,195,16.0,28.0,95,0.00,,SKC,0.00,0.00,VWS V14.00,2013-03-18 09:10:00,
2013-03-18 04:16:00,29.1,28.1,29.61,SW,219,16.0,20.0,96,0.00,,SKC,0.00,0.00,VWS V14.00,2013-03-18 09:16:00,
2013-03-18 04:21:00,29.2,28.2,29.61,SSW,203,10.0,22.0,96,0.00,,SKC,0.00,0.00,VWS V14.00,2013-03-18 09:21:00,
2013-03-18 04:26:00,29.3,28.3,29.60,SSW,201,17.0,18.0,96,0.00,,SKC,0.00,0.00,VWS V14.00,2013-03-18 09:26:00,
2013-03-18 04:31:00,29.4,28.1,29.60,SSW,193,7.0,22.0,95,0.00,,SKC,0.00,0.00,VWS V14.00,2013-03-18 09:31:00,
2013-03-18 04:38:00,29.6,28.6,29.59,SW,215,10.0,24.0,96,0.00,,SKC,0.00,0.00,VWS V14.00,2013-03-18 09:38:00,
2013-03-18 04:43:00,29.6,28.6,29.59,SW,220,15.0,21.0,96,0.00,,SKC,0.00,0.00,VWS V14.00,2013-03-18 09:43:00,
2013-03-18 04:48:00,29.7,28.7,29.59,WSW,249,16.0,19.0,96,0.00,,SKC,0.00,0.00,VWS V14.00,2013-03-18 09:48:00,
2013-03-18 04:53:00,29.7,28.7,29.58,South,190,9.0,23.0,96,0.00,,SKC,0.00,0.00,VWS V14.00,2013-03-18 09:53:00,
2013-03-18 04:58:00,29.8,28.8,29.59,SW,227,11.0,16.0,96,0.00,,SKC,0.00,0.00,VWS V14.00,2013-03-18 09:58:00,
2013-03-18 05:03:00,29.9,28.9,29.58,SSW,205,12.0,26.0,96,0.00,,SKC,0.00,0.00,VWS V14.00,2013-03-18 10:03:00,
2013-03-18 05:08:00,29.9,28.9,29.58,SSW,195,17.0,25.0,96,0.00,,SKC,0.00,0.00,VWS V14.00,2013-03-18 10:08:00,
2013-03-18 05:13:00,29.9,28.9,29.57,SW,215,10.0,19.0,96,0.00,,SKC,0.00,0.00,VWS V14.00,2013-03-18 10:13:00,
2013-03-18 05:18:00,29.9,28.9,29.57,SW,218,11.0,19.0,96,0.00,,SKC,0.00,0.00,VWS V14.00,2013-03-18 10:18:00,
2013-03-18 05:23:00,29.9,28.9,29.57,SW,217,10.0,17.0,96,0.00,,SKC,0.00,0.00,VWS V14.00,2013-03-18 10:23:00,
2013-03-18 05:28:00,30.0,29.0,29.56,SSW,200,12.0,24.0,96,0.00,,SKC,0.00,0.00,VWS V14.00,2013-03-18 10:28:00,
2013-03-18 05:33:00,30.1,29.1,29.57,SW,219,10.0,21.0,96,0.00,,SKC,0.00,0.00,VWS V14.00,2013-03-18 10:33:00,
2013-03-18 05:38:00,30.2,29.2,29.56,WSW,237,18.0,20.0,96,0.00,,SKC,0.00,0.00,VWS V14.00,2013-03-18 10:38:00,
2013-03-18 05:43:00,30.3,29.3,29.56,SW,231,9.0,22.0,96,0.00,,SKC,0.00,0.00,VWS V14.00,2013-03-18 10:43:00,
2013-03-18 05:48:00,30.5,29.5,29.56,SW,221,16.0,18.0,96,0.00,,SKC,0.00,0.00,VWS V14.00,2013-03-18 10:48:00,
2013-03-18 05:53:00,30.8,29.8,29.56,WSW,258,17.0,26.0,96,0.00,,SKC,0.00,0.00,VWS V14.00,2013-03-18 10:53:00,
2013-03-18 05:58:00,31.2,30.2,29.57,WNW,297,12.0,25.0,96,0.00,,SKC,0.00,0.00,VWS V14.00,2013-03-18 10:58:00,
2013-03-18 06:03:00,30.7,29.7,29.58,NW,315,9.0,19.0,96,0.00,,SKC,0.00,0.00,VWS V14.00,2013-03-18 11:03:00,
2013-03-18 06:08:00,29.8,28.5,29.58,WNW,284,11.0,26.0,95,0.00,,SKC,0.00,0.00,VWS V14.00,2013-03-18 11:08:00,
2013-03-18 06:13:00,29.3,28.0,29.57,West,275,6.0,19.0,95,0.00,,SKC,0.00,0.00,VWS V14.00,2013-03-18 11:13:00,
2013-03-18 06:18:00,28.9,27.6,29.57,West,277,11.0,15.0,95,0.00,,SKC,0.00,0.00,VWS V14.00,2013-03-18 11:18:00,
2013-03-18 06:23:00,28.5,27.2,29.58,WNW,290,8.0,15.0,95,0.00,,SKC,0.00,0.00,VWS V14.00,2013-03-18 11:23:00,
2013-03-18 06:28:00,28.2,26.7,29.58,NW,324,9.0,15.0,94,0.00,,SKC,0.00,0.00,VWS V14.00,2013-03-18 11:28:00,
2013-03-18 06:33:00,28.0,26.5,29.58,WNW,292,15.0,23.0,94,0.00,,SKC,0.00,0.00,VWS V14.00,2013-03-18 11:33:00,
2013-03-18 06:38:00,27.6,26.1,29.58,WNW,295,11.0,17.0,94,0.00,,SKC,0.00,0.00,VWS V14.00,2013-03-18 11:38:00,
2013-03-18 06:43:00,27.3,25.8,29.58,NNW,327,7.0,16.0,94,0.00,,SKC,0.00,0.00,VWS V14.00,2013-03-18 11:43:00,
2013-03-18 06:48:00,26.7,25.0,29.58,NW,305,11.0,16.0,93,0.00,,SKC,0.00,0.00,VWS V14.00,2013-03-18 11:48:00,
2013-03-18 06:53:00,26.1,24.4,29.59,NW,315,12.0,17.0,93,0.00,,SKC,0.00,0.00,VWS V14.00,2013-03-18 11:53:00,
2013-03-18 06:58:00,25.7,24.0,29.59,West,279,14.0,19.0,93,0.00,,SKC,0.00,0.00,VWS V14.00,2013-03-18 11:58:00,
2013-03-18 07:03:00,25.4,23.7,29.59,WNW,282,14.0,14.0,93,0.00,,SKC,0.00,0.00,VWS V14.00,2013-03-18 12:03:00,
2013-03-18 07:08:00,25.0,23.3,29.59,NNW,335,7.0,17.0,93,0.00,,SKC,0.00,0.00,VWS V14.00,2013-03-18 12:08:00,
2013-03-18 07:13:00,24.6,22.6,29.60,North,5,3.0,16.0,92,0.00,,SKC,0.00,0.00,VWS V14.00,2013-03-18 12:13:00,
2013-03-18 07:18:00,24.0,22.0,29.60,WNW,300,10.0,15.0,92,0.00,,SKC,0.00,0.00,VWS V14.00,2013-03-18 12:18:00,
2013-03-18 07:23:00,23.5,21.5,29.60,WNW,297,7.0,16.0,92,0.00,,SKC,0.00,0.00,VWS V14.00,2013-03-18 12:23:00,
2013-03-18 07:28:00,22.8,20.6,29.60,NW,310,10.0,18.0,91,0.00,,SKC,0.00,0.00,VWS V14.00,2013-03-18 12:28:00,
2013-03-18 07:33:00,22.4,20.2,29.61,WNW,288,3.0,16.0,91,0.00,,SKC,0.00,0.00,VWS V14.00,2013-03-18 12:33:00,
2013-03-18 07:38:00,22.1,19.9,29.60,NNE,13,7.0,18.0,91,0.00,,SKC,0.00,0.00,VWS V14.00,2013-03-18 12:38:00,
2013-03-18 07:43:00,21.7,19.5,29.61,NNE,19,8.0,19.0,91,0.00,,SKC,0.00,0.00,VWS V14.00,2013-03-18 12:43:00,
2013-03-18 07:48:00,21.4,19.2,29.61,North,355,5.0,16.0,91,0.00,,SKC,0.00,5.00,VWS V14.00,2013-03-18 12:48:00,
2013-03-18 07:54:00,21.1,18.9,29.61,WNW,287,22.0,22.0,91,0.00,,SKC,0.00,7.00,VWS V14.00,2013-03-18 12:54:00,
2013-03-18 07:59:00,20.8,18.6,29.61,NE,49,3.0,4.0,91,0.00,,SKC,0.00,18.00,VWS V14.00,2013-03-18 12:59:00,
2013-03-18 08:04:00,20.6,18.4,29.61,NNW,332,4.0,7.0,91,0.00,,SKC,0.00,21.00,VWS V14.00,2013-03-18 13:04:00,
2013-03-18 08:09:00,20.3,17.8,29.61,North,350,5.0,11.0,90,0.00,,SKC,0.00,26.00,VWS V14.00,2013-03-18 13:09:00,
2013-03-18 08:14:00,20.0,17.8,29.61,NNW,348,9.0,9.0,91,0.00,,SKC,0.00,33.00,VWS V14.00,2013-03-18 13:14:00,
2013-03-18 08:19:00,19.7,17.5,29.61,NW,322,2.0,4.0,91,0.00,,SKC,0.00,23.00,VWS V14.00,2013-03-18 13:19:00,
2013-03-18 08:24:00,19.6,17.4,29.62,NNW,332,10.0,10.0,91,0.00,,SKC,0.00,39.00,VWS V14.00,2013-03-18 13:24:00,
2013-03-18 08:29:00,19.3,17.1,29.62,NNE,20,1.0,11.0,91,0.00,,SKC,0.00,63.00,VWS V14.00,2013-03-18 13:29:00,
2013-03-18 08:34:00,19.1,16.7,29.62,NNW,334,5.0,10.0,90,0.00,,SKC,0.00,63.00,VWS V14.00,2013-03-18 13:34:00,
2013-03-18 08:39:00,18.8,16.4,29.62,NW,311,6.0,12.0,90,0.00,,SKC,0.00,102.00,VWS V14.00,2013-03-18 13:39:00,
2013-03-18 08:44:00,18.7,16.3,29.62,WNW,294,7.0,8.0,90,0.00,,SKC,0.00,97.00,VWS V14.00,2013-03-18 13:44:00,
2013-03-18 08:50:00,18.5,16.1,29.62,NNW,327,9.0,13.0,90,0.00,,SKC,0.00,114.00,VWS V14.00,2013-03-18 13:50:00,
2013-03-18 08:55:00,18.2,15.8,29.62,North,349,9.0,13.0,90,0.00,,SKC,0.00,130.00,VWS V14.00,2013-03-18 13:55:00,
2013-03-18 09:00:00,17.7,15.0,29.63,NNE,25,8.0,10.0,89,0.00,,SKC,0.00,127.00,VWS V14.00,2013-03-18 14:00:00,
2013-03-18 09:05:00,17.5,14.8,29.63,NNW,338,9.0,11.0,89,0.00,,SKC,0.00,269.00,VWS V14.00,2013-03-18 14:05:00,
2013-03-18 09:10:00,17.7,15.3,29.63,NNE,20,4.0,13.0,90,0.00,,SKC,0.00,255.00,VWS V14.00,2013-03-18 14:10:00,
2013-03-18 09:15:00,17.8,15.4,29.63,North,355,4.0,9.0,90,0.00,,SKC,0.00,287.00,VWS V14.00,2013-03-18 14:15:00,
2013-03-18 09:20:00,17.8,15.4,29.63,NNW,345,3.0,10.0,90,0.00,,SKC,0.00,167.00,VWS V14.00,2013-03-18 14:20:00,
2013-03-18 09:25:00,17.8,15.4,29.63,NNE,27,7.0,13.0,90,0.00,,SKC,0.00,163.00,VWS V14.00,2013-03-18 14:25:00,
2013-03-18 09:30:00,17.3,14.6,29.64,North,5,6.0,12.0,89,0.00,,SKC,0.00,214.00,VWS V14.00,2013-03-18 14:30:00,
2013-03-18 09:35:00,16.8,13.9,29.64,North,350,6.0,10.0,88,0.00,,SKC,0.00,269.00,VWS V14.00,2013-03-18 14:35:00,
2013-03-18 09:40:00,16.6,13.7,29.63,NNE,28,9.0,16.0,88,0.00,,SKC,0.00,281.00,VWS V14.00,2013-03-18 14:40:00,
2013-03-18 09:45:00,16.4,13.5,29.64,NE,42,5.0,15.0,88,0.00,,SKC,0.00,348.00,VWS V14.00,2013-03-18 14:45:00,
2013-03-18 09:50:00,16.1,13.2,29.64,NNW,340,5.0,12.0,88,0.00,,SKC,0.00,299.00,VWS V14.00,2013-03-18 14:50:00,
2013-03-18 09:55:00,16.0,13.1,29.64,North,349,4.0,15.0,88,0.00,,SKC,0.00,202.00,VWS V14.00,2013-03-18 14:55:00,
2013-03-18 10:00:00,15.9,13.0,29.64,NW,310,5.0,13.0,88,0.00,,SKC,0.00,227.00,VWS V14.00,2013-03-18 15:00:00,
2013-03-18 10:06:00,15.9,13.0,29.64,NNE,28,6.0,13.0,88,0.00,,SKC,0.00,281.00,VWS V14.00,2013-03-18 15:06:00,
2013-03-18 10:11:00,15.9,13.0,29.65,NNE,18,4.0,13.0,88,0.00,,SKC,0.00,446.00,VWS V14.00,2013-03-18 15:11:00,
2013-03-18 10:16:00,16.0,13.1,29.65,NW,311,14.0,14.0,88,0.00,,SKC,0.00,290.00,VWS V14.00,2013-03-18 15:16:00,
2013-03-18 10:21:00,15.7,12.5,29.64,NNE,13,7.0,15.0,87,0.00,,SKC,0.00,526.00,VWS V14.00,2013-03-18 15:21:00,
2013-03-18 10:26:00,15.6,12.7,29.65,NNE,32,11.0,11.0,88,0.00,,SKC,0.00,302.00,VWS V14.00,2013-03-18 15:26:00,
2013-03-18 10:31:00,15.7,12.5,29.65,NNW,336,10.0,14.0,87,0.00,,SKC,0.00,355.00,VWS V14.00,2013-03-18 15:31:00,
2013-03-18 10:36:00,15.5,12.3,29.65,NNW,340,5.0,15.0,87,0.00,,SKC,0.00,378.00,VWS V14.00,2013-03-18 15:36:00,
2013-03-18 10:41:00,15.5,12.6,29.65,NW,323,11.0,12.0,88,0.00,,SKC,0.00,455.00,VWS V14.00,2013-03-18 15:41:00,
2013-03-18 10:48:00,15.6,12.7,29.65,North,5,10.0,17.0,88,0.00,,SKC,0.00,387.00,VWS V14.00,2013-03-18 15:48:00,
2013-03-18 10:53:00,15.5,12.3,29.66,NNW,344,6.0,16.0,87,0.00,,SKC,0.00,429.00,VWS V14.00,2013-03-18 15:53:00,
2013-03-18 10:58:00,15.5,12.3,29.65,NNE,17,4.0,18.0,87,0.00,,SKC,0.00,499.00,VWS V14.00,2013-03-18 15:58:00,
2013-03-18 11:03:00,15.6,12.4,29.65,NNE,21,3.0,17.0,87,0.00,,SKC,0.00,599.00,VWS V14.00,2013-03-18 16:03:00,
2013-03-18 11:08:00,15.7,12.5,29.65,North,355,4.0,20.0,87,0.00,,SKC,0.00,573.00,VWS V14.00,2013-03-18 16:08:00,
2013-03-18 11:13:00,15.9,12.7,29.66,North,355,10.0,18.0,87,0.00,,SKC,0.00,710.00,VWS V14.00,2013-03-18 16:13:00,
2013-03-18 11:18:00,16.1,12.9,29.65,WNW,302,7.0,14.0,87,0.00,,SKC,0.00,596.00,VWS V14.00,2013-03-18 16:18:00,
2013-03-18 11:23:00,16.2,13.0,29.66,NNE,21,6.0,15.0,87,0.00,,SKC,0.00,626.00,VWS V14.00,2013-03-18 16:23:00,
2013-03-18 11:28:00,16.2,13.0,29.66,WNW,302,6.0,6.0,87,0.00,,SKC,0.00,540.00,VWS V14.00,2013-03-18 16:28:00,
2013-03-18 11:33:00,15.8,12.6,29.66,NNE,27,7.0,26.0,87,0.00,,SKC,0.00,355.00,VWS V14.00,2013-03-18 16:33:00,
2013-03-18 11:38:00,15.3,12.1,29.67,NNW,344,13.0,16.0,87,0.00,,SKC,0.00,403.00,VWS V14.00,2013-03-18 16:38:00,
2013-03-18 11:43:00,15.0,11.8,29.67,NNW,335,6.0,15.0,87,0.00,,SKC,0.00,427.00,VWS V14.00,2013-03-18 16:43:00,
2013-03-18 11:48:00,15.1,11.9,29.67,NNW,337,12.0,19.0,87,0.00,,SKC,0.00,443.00,VWS V14.00,2013-03-18 16:48:00,
2013-03-18 11:53:00,15.0,11.8,29.67,NNW,336,13.0,19.0,87,0.00,,SKC,0.00,397.00,VWS V14.00,2013-03-18 16:53:00,
2013-03-18 11:58:00,14.9,11.7,29.67,WNW,287,6.0,15.0,87,0.00,,SKC,0.00,492.00,VWS V14.00,2013-03-18 16:58:00,
2013-03-18 12:03:00,14.9,11.7,29.67,NNE,22,13.0,17.0,87,0.00,,SKC,0.00,628.00,VWS V14.00,2013-03-18 17:03:00,
2013-03-18 12:08:00,14.9,11.7,29.67,NW,324,6.0,13.0,87,0.00,,SKC,0.00,552.00,VWS V14.00,2013-03-18 17:08:00,
2013-03-18 12:13:00,14.8,11.6,29.68,NW,325,6.0,13.0,87,0.00,,SKC,0.00,392.00,VWS V14.00,2013-03-18 17:13:00,
2013-03-18 12:18:00,14.7,11.5,29.68,NNE,30,9.0,14.0,87,0.00,,SKC,0.00,443.00,VWS V14.00,2013-03-18 17:18:00,
2013-03-18 12:23:00,14.7,11.8,29.67,NW,317,11.0,14.0,88,0.00,,SKC,0.00,432.00,VWS V14.00,2013-03-18 17:23:00,
2013-03-18 12:28:00,14.7,11.8,29.68,NNE,13,7.0,19.0,88,0.00,,SKC,0.00,420.00,VWS V14.00,2013-03-18 17:28:00,
2013-03-18 12:33:00,14.4,11.2,29.68,North,360,6.0,25.0,87,0.00,,SKC,0.00,418.00,VWS V14.00,2013-03-18 17:33:00,
2013-03-18 12:38:00,14.4,11.2,29.68,NNE,17,5.0,23.0,87,0.00,,SKC,0.00,427.00,VWS V14.00,2013-03-18 17:38:00,
2013-03-18 12:43:00,14.4,11.2,29.68,NW,323,10.0,15.0,87,0.00,,SKC,0.00,392.00,VWS V14.00,2013-03-18 17:43:00,
2013-03-18 12:48:00,14.2,11.1,29.68,North,355,4.0,21.0,87,0.00,,SKC,0.00,367.00,VWS V14.00,2013-03-18 17:48:00,
2013-03-18 12:53:00,14.3,11.1,29.68,NW,321,6.0,16.0,87,0.00,,SKC,0.00,434.00,VWS V14.00,2013-03-18 17:53:00,
2013-03-18 12:58:00,14.6,11.7,29.68,NNW,329,6.0,18.0,88,0.00,,SKC,0.00,457.00,VWS V14.00,2013-03-18 17:58:00,
2013-03-18 13:03:00,14.5,11.3,29.68,NNW,338,7.0,17.0,87,0.00,,SKC,0.00,519.00,VWS V14.00,2013-03-18 18:03:00,
2013-03-18 13:08:00,14.7,11.8,29.68,North,355,9.0,22.0,88,0.00,,SKC,0.00,503.00,VWS V14.00,2013-03-18 18:08:00,
2013-03-18 13:14:00,14.9,11.7,29.68,North,355,5.0,13.0,87,0.00,,SKC,0.00,547.00,VWS V14.00,2013-03-18 18:14:00,
2013-03-18 13:19:00,15.1,11.9,29.68,NE,45,7.0,14.0,87,0.00,,SKC,0.00,663.00,VWS V14.00,2013-03-18 18:19:00,
2013-03-18 13:24:00,15.3,12.1,29.68,North,5,4.0,15.0,87,0.00,,SKC,0.00,589.00,VWS V14.00,2013-03-18 18:24:00,
2013-03-18 13:29:00,15.4,12.2,29.68,NNE,33,4.0,12.0,87,0.00,,SKC,0.00,522.00,VWS V14.00,2013-03-18 18:29:00,
2013-03-18 13:34:00,15.5,12.3,29.68,North,360,5.0,10.0,87,0.00,,SKC,0.00,557.00,VWS V14.00,2013-03-18 18:34:00,
2013-03-18 13:39:00,15.7,12.5,29.68,NNW,346,6.0,10.0,87,0.00,,SKC,0.00,545.00,VWS V14.00,2013-03-18 18:39:00,
2013-03-18 13:44:00,16.0,12.8,29.68,North,355,3.0,9.0,87,0.00,,SKC,0.00,578.00,VWS V14.00,2013-03-18 18:44:00,
2013-03-18 13:49:00,16.5,13.3,29.68,North,5,9.0,17.0,87,0.00,,SKC,0.00,668.00,VWS V14.00,2013-03-18 18:49:00,
2013-03-18 13:54:00,16.5,13.3,29.68,NNE,12,9.0,13.0,87,0.00,,SKC,0.00,635.00,VWS V14.00,2013-03-18 18:54:00,
2013-03-18 14:00:00,16.6,13.1,29.67,North,349,6.0,22.0,86,0.00,,SKC,0.00,763.00,VWS V14.00,2013-03-18 19:00:00,
2013-03-18 14:05:00,16.5,13.1,29.68,NE,51,6.0,13.0,86,0.00,,SKC,0.00,459.00,VWS V14.00,2013-03-18 19:05:00,
2013-03-18 14:10:00,16.1,12.7,29.68,NE,54,13.0,18.0,86,0.00,,SKC,0.00,369.00,VWS V14.00,2013-03-18 19:10:00,
2013-03-18 14:15:00,15.6,12.2,29.68,WNW,294,6.0,16.0,86,0.00,,SKC,0.00,404.00,VWS V14.00,2013-03-18 19:15:00,
2013-03-18 14:20:00,15.3,12.1,29.69,North,355,9.0,14.0,87,0.00,,SKC,0.00,519.00,VWS V14.00,2013-03-18 19:20:00,
2013-03-18 14:25:00,15.3,11.9,29.69,North,9,9.0,14.0,86,0.00,,SKC,0.00,657.00,VWS V14.00,2013-03-18 19:25:00,
2013-03-18 14:30:00,16.0,13.1,29.69,NNE,15,11.0,14.0,88,0.00,,SKC,0.00,696.00,VWS V14.00,2013-03-18 19:30:00,
2013-03-18 14:35:00,16.2,12.8,29.68,NNE,33,5.0,20.0,86,0.00,,SKC,0.00,482.00,VWS V14.00,2013-03-18 19:35:00,
2013-03-18 14:40:00,16.0,12.6,29.69,North,5,6.0,14.0,86,0.00,,SKC,0.00,605.00,VWS V14.00,2013-03-18 19:40:00,
2013-03-18 14:45:00,16.0,12.6,29.68,North,355,10.0,13.0,86,0.00,,SKC,0.00,800.00,VWS V14.00,2013-03-18 19:45:00,
2013-03-18 14:50:00,16.3,13.1,29.69,NW,304,7.0,19.0,87,0.00,,SKC,0.00,633.00,VWS V14.00,2013-03-18 19:50:00,
2013-03-18 14:55:00,16.1,12.7,29.69,North,9,6.0,16.0,86,0.00,,SKC,0.00,591.00,VWS V14.00,2013-03-18 19:55:00,
2013-03-18 15:00:00,15.7,12.3,29.69,NNE,13,13.0,14.0,86,0.00,,SKC,0.00,445.00,VWS V14.00,2013-03-18 20:00:00,
2013-03-18 15:06:00,15.3,11.9,29.69,North,360,16.0,18.0,86,0.00,,SKC,0.00,343.00,VWS V14.00,2013-03-18 20:06:00,
2013-03-18 15:11:00,14.9,11.5,29.69,NNE,19,9.0,16.0,86,0.00,,SKC,0.00,380.00,VWS V14.00,2013-03-18 20:11:00,
2013-03-18 15:16:00,14.8,11.4,29.69,NNE,25,5.0,13.0,86,0.00,,SKC,0.00,381.00,VWS V14.00,2013-03-18 20:16:00,
2013-03-18 15:21:00,14.9,11.7,29.69,ENE,59,6.0,15.0,87,0.00,,SKC,0.00,461.00,VWS V14.00,2013-03-18 20:21:00,
2013-03-18 15:26:00,15.2,12.3,29.69,NNE,25,6.0,17.0,88,0.00,,SKC,0.00,485.00,VWS V14.00,2013-03-18 20:26:00,
2013-03-18 15:31:00,15.5,12.6,29.70,NNE,15,5.0,19.0,88,0.00,,SKC,0.00,524.00,VWS V14.00,2013-03-18 20:31:00,
2013-03-18 15:38:00,16.1,12.9,29.70,NNE,14,5.0,14.0,87,0.00,,SKC,0.00,559.00,VWS V14.00,2013-03-18 20:38:00,
2013-03-18 15:43:00,16.1,12.9,29.70,NNE,33,6.0,21.0,87,0.00,,SKC,0.00,786.00,VWS V14.00,2013-03-18 20:43:00,
2013-03-18 15:48:00,16.0,12.6,29.70,NNE,20,6.0,23.0,86,0.00,,SKC,0.00,591.00,VWS V14.00,2013-03-18 20:48:00,
2013-03-18 15:53:00,15.7,12.3,29.70,NE,34,9.0,14.0,86,0.00,,SKC,0.00,485.00,VWS V14.00,2013-03-18 20:53:00,
2013-03-18 15:58:00,15.7,12.3,29.70,NNE,30,8.0,21.0,86,0.00,,SKC,0.00,369.00,VWS V14.00,2013-03-18 20:58:00,
2013-03-18 16:03:00,15.8,12.6,29.70,NE,53,9.0,20.0,87,0.00,,SKC,0.00,638.00,VWS V14.00,2013-03-18 21:03:00,
2013-03-18 16:08:00,15.7,12.3,29.70,NNE,30,8.0,18.0,86,0.00,,SKC,0.00,517.00,VWS V14.00,2013-03-18 21:08:00,
2013-03-18 16:13:00,15.7,12.3,29.71,North,11,10.0,14.0,86,0.00,,SKC,0.00,531.00,VWS V14.00,2013-03-18 21:13:00,
2013-03-18 16:18:00,15.6,12.2,29.71,NNW,335,7.0,18.0,86,0.00,,SKC,0.00,531.00,VWS V14.00,2013-03-18 21:18:00,
2013-03-18 16:23:00,15.5,12.1,29.71,North,350,6.0,19.0,86,0.00,,SKC,0.00,508.00,VWS V14.00,2013-03-18 21:23:00,
2013-03-18 16:28:00,15.5,12.3,29.71,North,349,10.0,18.0,87,0.00,,SKC,0.00,464.00,VWS V14.00,2013-03-18 21:28:00,
2013-03-18 16:33:00,15.5,12.3,29.72,NE,36,12.0,15.0,87,0.00,,SKC,0.00,339.00,VWS V14.00,2013-03-18 21:33:00,
2013-03-18 16:38:00,15.5,12.3,29.72,North,350,5.0,16.0,87,0.00,,SKC,0.00,494.00,VWS V14.00,2013-03-18 21:38:00,
2013-03-18 16:43:00,15.4,12.0,29.72,NW,323,13.0,17.0,86,0.00,,SKC,0.00,346.00,VWS V14.00,2013-03-18 21:43:00,
2013-03-18 16:48:00,15.1,11.7,29.73,ENE,67,8.0,18.0,86,0.00,,SKC,0.00,186.00,VWS V14.00,2013-03-18 21:48:00,
2013-03-18 16:54:00,14.8,11.4,29.73,NE,49,6.0,12.0,86,0.00,,SKC,0.00,274.00,VWS V14.00,2013-03-18 21:54:00,
2013-03-18 16:59:00,14.6,11.4,29.73,NW,324,15.0,15.0,87,0.00,,SKC,0.00,271.00,VWS V14.00,2013-03-18 21:59:00,
2013-03-18 17:04:00,14.4,11.2,29.73,NW,315,5.0,15.0,87,0.00,,SKC,0.00,246.00,VWS V14.00,2013-03-18 22:04:00,
2013-03-18 17:09:00,14.3,11.1,29.73,NNE,22,10.0,13.0,87,0.00,,SKC,0.00,160.00,VWS V14.00,2013-03-18 22:09:00,
2013-03-18 17:14:00,14.1,10.9,29.74,North,5,5.0,8.0,87,0.00,,SKC,0.00,236.00,VWS V14.00,2013-03-18 22:14:00,
2013-03-18 17:19:00,14.2,11.3,29.74,NNE,19,10.0,13.0,88,0.00,,SKC,0.00,234.00,VWS V14.00,2013-03-18 22:19:00,
2013-03-18 17:24:00,14.5,11.6,29.74,North,5,7.0,15.0,88,0.00,,SKC,0.00,334.00,VWS V14.00,2013-03-18 22:24:00,
2013-03-18 17:29:00,14.8,11.9,29.74,NNW,338,5.0,16.0,88,0.00,,SKC,0.00,390.00,VWS V14.00,2013-03-18 22:29:00,
2013-03-18 17:34:00,15.0,12.1,29.74,NNE,22,3.0,15.0,88,0.00,,SKC,0.00,301.00,VWS V14.00,2013-03-18 22:34:00,
2013-03-18 17:39:00,14.9,11.7,29.75,NNE,21,9.0,15.0,87,0.00,,SKC,0.00,188.00,VWS V14.00,2013-03-18 22:39:00,
2013-03-18 17:45:00,14.5,11.3,29.75,NNE,13,7.0,14.0,87,0.00,,SKC,0.00,169.00,VWS V14.00,2013-03-18 22:45:00,
2013-03-18 17:50:00,14.4,11.2,29.76,NNE,15,4.0,6.0,87,0.00,,SKC,0.00,258.00,VWS V14.00,2013-03-18 22:50:00,
2013-03-18 17:55:00,14.5,11.6,29.76,North,9,7.0,13.0,88,0.00,,SKC,0.00,163.00,VWS V14.00,2013-03-18 22:55:00,
2013-03-18 18:00:00,14.3,11.1,29.76,North,5,6.0,18.0,87,0.00,,SKC,0.00,146.00,VWS V14.00,2013-03-18 23:00:00,
2013-03-18 18:05:00,14.2,11.1,29.76,North,10,5.0,12.0,87,0.00,,SKC,0.00,155.00,VWS V14.00,2013-03-18 23:05:00,
2013-03-18 18:10:00,14.2,11.1,29.76,NE,38,6.0,14.0,87,0.00,,SKC,0.00,156.00,VWS V14.00,2013-03-18 23:10:00,
2013-03-18 18:15:00,14.1,11.2,29.76,NNE,13,5.0,14.0,88,0.00,,SKC,0.00,116.00,VWS V14.00,2013-03-18 23:15:00,
2013-03-18 18:20:00,14.0,11.1,29.77,North,360,10.0,16.0,88,0.00,,SKC,0.00,104.00,VWS V14.00,2013-03-18 23:20:00,
2013-03-18 18:25:00,13.9,11.0,29.77,North,360,15.0,15.0,88,0.00,,SKC,0.00,107.00,VWS V14.00,2013-03-18 23:25:00,
2013-03-18 18:30:00,13.5,10.4,29.77,NNW,348,5.0,10.0,87,0.00,,SKC,0.00,70.00,VWS V14.00,2013-03-18 23:30:00,
2013-03-18 18:35:00,13.4,10.3,29.77,NNE,25,9.0,9.0,87,0.00,,SKC,0.00,79.00,VWS V14.00,2013-03-18 23:35:00,
2013-03-18 18:40:00,13.2,10.1,29.77,NNE,32,10.0,11.0,87,0.00,,SKC,0.00,86.00,VWS V14.00,2013-03-18 23:40:00,
2013-03-18 18:45:00,13.1,10.0,29.77,North,5,3.0,14.0,87,0.00,,SKC,0.00,70.00,VWS V14.00,2013-03-18 23:45:00,
2013-03-18 18:50:00,13.0,10.1,29.77,North,355,5.0,10.0,88,0.00,,SKC,0.00,53.00,VWS V14.00,2013-03-18 23:50:00,
2013-03-18 18:55:00,12.9,10.0,29.78,NNE,22,7.0,8.0,88,0.00,,SKC,0.00,42.00,VWS V14.00,2013-03-18 23:55:00,
2013-03-18 19:00:00,12.8,9.9,29.78,NNE,20,7.0,14.0,88,0.00,,SKC,0.00,35.00,VWS V14.00,2013-03-19 00:00:00,
2013-03-18 19:05:00,12.7,9.6,29.79,NNE,28,7.0,15.0,87,0.00,,SKC,0.00,32.00,VWS V14.00,2013-03-19 00:05:00,
2013-03-18 19:10:00,12.6,9.7,29.78,North,360,4.0,12.0,88,0.00,,SKC,0.00,30.00,VWS V14.00,2013-03-19 00:10:00,
2013-03-18 19:15:00,12.5,9.6,29.79,North,355,5.0,15.0,88,0.00,,SKC,0.00,25.00,VWS V14.00,2013-03-19 00:15:00,
2013-03-18 19:20:00,12.4,9.5,29.80,North,360,6.0,15.0,88,0.00,,SKC,0.00,12.00,VWS V14.00,2013-03-19 00:20:00,
2013-03-18 19:26:00,12.2,9.3,29.80,NNW,348,5.0,9.0,88,0.00,,SKC,0.00,9.00,VWS V14.00,2013-03-19 00:26:00,
2013-03-18 19:31:00,12.1,9.2,29.80,North,9,5.0,10.0,88,0.00,,SKC,0.00,7.00,VWS V14.00,2013-03-19 00:31:00,
2013-03-18 19:36:00,11.9,9.0,29.80,NNE,24,9.0,14.0,88,0.00,,SKC,0.00,5.00,VWS V14.00,2013-03-19 00:36:00,
2013-03-18 19:41:00,11.8,8.9,29.80,North,9,8.0,12.0,88,0.00,,SKC,0.00,0.00,VWS V14.00,2013-03-19 00:41:00,
2013-03-18 19:46:00,11.7,8.6,29.81,NNE,21,11.0,16.0,87,0.00,,SKC,0.00,0.00,VWS V14.00,2013-03-19 00:46:00,
2013-03-18 19:51:00,11.6,8.5,29.80,NNE,25,6.0,14.0,87,0.00,,SKC,0.00,0.00,VWS V14.00,2013-03-19 00:51:00,
2013-03-18 19:56:00,11.6,8.7,29.81,North,360,9.0,14.0,88,0.00,,SKC,0.00,0.00,VWS V14.00,2013-03-19 00:56:00,
2013-03-18 20:01:00,11.5,8.6,29.81,NNE,13,10.0,15.0,88,0.00,,SKC,0.00,0.00,VWS V14.00,2013-03-19 01:01:00,
2013-03-18 20:06:00,11.5,8.6,29.82,NE,35,10.0,15.0,88,0.00,,SKC,0.00,0.00,VWS V14.00,2013-03-19 01:06:00,
2013-03-18 20:11:00,11.5,8.6,29.82,North,5,5.0,15.0,88,0.00,,SKC,0.00,0.00,VWS V14.00,2013-03-19 01:11:00,
2013-03-18 20:16:00,11.4,8.5,29.82,NNE,30,10.0,12.0,88,0.00,,SKC,0.00,0.00,VWS V14.00,2013-03-19 01:16:00,
2013-03-18 20:23:00,11.4,8.5,29.82,NNE,22,11.0,13.0,88,0.00,,SKC,0.00,0.00,VWS V14.00,2013-03-19 01:23:00,
2013-03-18 20:28:00,11.5,8.6,29.83,NNE,22,10.0,14.0,88,0.00,,SKC,0.00,0.00,VWS V14.00,2013-03-19 01:28:00,
2013-03-18 20:33:00,11.5,8.6,29.83,North,5,3.0,13.0,88,0.00,,SKC,0.00,0.00,VWS V14.00,2013-03-19 01:33:00,
2013-03-18 20:38:00,11.5,8.6,29.84,North,5,7.0,20.0,88,0.00,,SKC,0.00,0.00,VWS V14.00,2013-03-19 01:38:00,
2013-03-18 20:43:00,11.5,8.6,29.84,NNE,17,6.0,16.0,88,0.00,,SKC,0.00,0.00,VWS V14.00,2013-03-19 01:43:00,
2013-03-18 20:48:00,11.4,8.5,29.84,NNE,15,5.0,16.0,88,0.00,,SKC,0.00,0.00,VWS V14.00,2013-03-19 01:48:00,
2013-03-18 20:53:00,11.3,8.4,29.84,NNE,30,7.0,12.0,88,0.00,,SKC,0.00,0.00,VWS V14.00,2013-03-19 01:53:00,
2013-03-18 20:58:00,11.2,8.4,29.84,NNE,19,9.0,20.0,88,0.00,,SKC,0.00,0.00,VWS V14.00,2013-03-19 01:58:00,
2013-03-18 21:03:00,11.0,8.1,29.84,North,355,10.0,14.0,88,0.00,,SKC,0.00,0.00,VWS V14.00,2013-03-19 02:03:00,
2013-03-18 21:09:00,10.9,8.1,29.85,NNE,28,7.0,11.0,88,0.00,,SKC,0.00,0.00,VWS V14.00,2013-03-19 02:09:00,
2013-03-18 21:14:00,10.8,7.7,29.85,NNE,15,11.0,13.0,87,0.00,,SKC,0.00,0.00,VWS V14.00,2013-03-19 02:14:00,
2013-03-18 21:19:00,10.6,7.5,29.85,North,11,9.0,11.0,87,0.00,,SKC,0.00,0.00,VWS V14.00,2013-03-19 02:19:00,
2013-03-18 21:24:00,10.4,7.3,29.85,North,9,10.0,15.0,87,0.00,,SKC,0.00,0.00,VWS V14.00,2013-03-19 02:24:00,
2013-03-18 21:29:00,10.3,7.2,29.85,North,351,6.0,16.0,87,0.00,,SKC,0.00,0.00,VWS V14.00,2013-03-19 02:29:00,
2013-03-18 21:34:00,10.1,7.0,29.86,NNE,13,7.0,13.0,87,0.00,,SKC,0.00,0.00,VWS V14.00,2013-03-19 02:34:00,
2013-03-18 21:39:00,10.0,6.9,29.87,North,5,7.0,10.0,87,0.00,,SKC,0.00,0.00,VWS V14.00,2013-03-19 02:39:00,
2013-03-18 21:44:00,9.9,6.8,29.87,North,351,5.0,9.0,87,0.00,,SKC,0.00,0.00,VWS V14.00,2013-03-19 02:44:00,
2013-03-18 21:49:00,9.8,7.0,29.87,NNE,20,6.0,9.0,88,0.00,,SKC,0.00,0.00,VWS V14.00,2013-03-19 02:49:00,
2013-03-18 21:55:00,9.7,6.9,29.87,NNE,24,10.0,14.0,88,0.00,,SKC,0.00,0.00,VWS V14.00,2013-03-19 02:55:00,
2013-03-18 22:00:00,9.7,6.6,29.87,North,355,5.0,13.0,87,0.00,,SKC,0.00,0.00,VWS V14.00,2013-03-19 03:00:00,
2013-03-18 22:05:00,9.6,6.5,29.87,North,11,7.0,13.0,87,0.00,,SKC,0.00,0.00,VWS V14.00,2013-03-19 03:05:00,
2013-03-18 22:10:00,9.5,6.4,29.88,NNE,30,6.0,13.0,87,0.00,,SKC,0.00,0.00,VWS V14.00,2013-03-19 03:10:00,
2013-03-18 22:15:00,9.4,6.3,29.88,North,355,5.0,10.0,87,0.00,,SKC,0.00,0.00,VWS V14.00,2013-03-19 03:15:00,
2013-03-18 22:20:00,9.2,6.1,29.88,NNW,330,11.0,17.0,87,0.00,,SKC,0.00,0.00,VWS V14.00,2013-03-19 03:20:00,
2013-03-18 22:25:00,9.1,6.0,29.88,North,10,10.0,11.0,87,0.00,,SKC,0.00,0.00,VWS V14.00,2013-03-19 03:25:00,
2013-03-18 22:30:00,9.0,5.9,29.88,NNE,18,7.0,9.0,87,0.00,,SKC,0.00,0.00,VWS V14.00,2013-03-19 03:30:00,
2013-03-18 22:35:00,8.8,5.7,29.89,NNE,15,9.0,15.0,87,0.00,,SKC,0.00,0.00,VWS V14.00,2013-03-19 03:35:00,
2013-03-18 22:40:00,8.7,5.6,29.89,NNE,18,5.0,17.0,87,0.00,,SKC,0.00,0.00,VWS V14.00,2013-03-19 03:40:00,
2013-03-18 22:45:00,8.7,5.6,29.89,North,5,9.0,15.0,87,0.00,,SKC,0.00,0.00,VWS V14.00,2013-03-19 03:45:00,
2013-03-18 22:50:00,8.6,5.5,29.89,North,11,10.0,10.0,87,0.00,,SKC,0.00,0.00,VWS V14.00,2013-03-19 03:50:00,
2013-03-18 22:55:00,8.5,5.4,29.89,NNE,15,17.0,17.0,87,0.00,,SKC,0.00,0.00,VWS V14.00,2013-03-19 03:55:00,
2013-03-18 23:00:00,8.4,5.3,29.89,NNE,16,7.0,13.0,87,0.00,,SKC,0.00,0.00,VWS V14.00,2013-03-19 04:00:00,
2013-03-18 23:06:00,8.3,5.2,29.89,NNE,15,7.0,10.0,87,0.00,,SKC,0.00,0.00,VWS V14.00,2013-03-19 04:06:00,
2013-03-18 23:08:00,8.3,5.2,29.89,NNE,23,7.0,15.0,87,0.00,,SKC,0.00,0.00,VWS V14.00,2013-03-19 04:08:00,
2013-03-18 23:13:00,8.2,5.1,29.89,NNE,13,13.0,15.0,87,0.00,,SKC,0.00,0.00,VWS V14.00,2013-03-19 04:13:00,
2013-03-18 23:14:00,8.2,5.1,29.89,NNE,15,6.0,13.0,87,0.00,,SKC,0.00,0.00,VWS V14.00,2013-03-19 04:14:00,
2013-03-18 23:19:00,8.1,4.8,29.89,NE,40,11.0,11.0,86,0.00,,SKC,0.00,0.00,VWS V14.00,2013-03-19 04:19:00,
2013-03-18 23:24:00,8.1,5.0,29.90,NNE,23,5.0,16.0,87,0.00,,SKC,0.00,0.00,VWS V14.00,2013-03-19 04:24:00,
2013-03-18 23:29:00,8.0,4.9,29.90,NNE,19,8.0,13.0,87,0.00,,SKC,0.00,0.00,VWS V14.00,2013-03-19 04:29:00,
2013-03-18 23:35:00,8.0,4.9,29.90,NNE,28,9.0,11.0,87,0.00,,SKC,0.00,0.00,VWS V14.00,2013-03-19 04:35:00,
2013-03-18 23:40:00,7.9,4.8,29.90,NNE,15,9.0,13.0,87,0.00,,SKC,0.00,0.00,VWS V14.00,2013-03-19 04:40:00,
2013-03-18 23:45:00,7.8,4.7,29.90,North,360,6.0,14.0,87,0.00,,SKC,0.00,0.00,VWS V14.00,2013-03-19 04:45:00,
2013-03-18 23:50:00,7.8,4.7,29.90,North,360,7.0,13.0,87,0.00,,SKC,0.00,0.00,VWS V14.00,2013-03-19 04:50:00,
2013-03-18 23:55:00,7.7,4.4,29.90,NNW,344,7.0,11.0,86,0.00,,SKC,0.00,0.00,VWS V14.00,2013-03-19 04:55:00,